www.pogodaiklimat.ru

Погода и климат >> Архив погоды >> Сенегал >> Диурбель


ПОГОДА в Диурбеле

  • Прогноз погоды в Диурбеле
  • Монитор погоды в Диурбеле

АРХИВ ПОГОДЫ в Диурбеле

Время (UTC), дата Ветер
(напр.,м/с)
 
Видим.   Явления Облачность Т
(С)
Тd
(С)
f
(%)
Тe
(С)
Тes
(С)
Комфортность P
(гПа)
Po
(гПа)
Тmin
(С)
Tmax
(С)
R
(мм)
R24
(мм)
S
(см)
00 9.07 З 1 8000 м 10/0
[Ac As]
+26.9 +22.8 78 +36 +36 очень
душно
1015.4 1014.4
03 9.07 штиль 0 8000 м 4/0
[Ac trans]
+26.0 +22.8 83 +35 +35 очень
душно
1014.3 1013.3
06 9.07 СЗ 1 8000 м 4/0
[Ac trans]
+25.3 +22.7 86 +33 +33 очень
душно
1014.6 1013.6 +25.3
09 9.07 СЗ 2 10 км ясно +27.0 +23.4 81 +37 +43 очень
душно
1015.4 1014.4
12 9.07 З 3 10 км ясно +32.8 +22.7 55 +42 +59 опасность
перегрева
1015.3 1014.3
15 9.07 З 3 10 км ясно +36.9 +22.5 44 +46 +60 опасность
перегрева
1012.9 1011.9
18 9.07 СЗ 4 10 км 5/0
[Ci sp]
+36.9 +21.7 42 +45 +47 опасность
перегрева
1011.4 1010.4 +38.0
21 9.07 З 3 8000 м 5/0
[Ci sp]
+31.2 +21.2 55 +39 +39 очень
душно
1013.2 1012.2
00 10.07 СЗ 2 8000 м 6/0
[Ac trans Ci sp]
+28.6 +21.0 63 +36 +36 очень
душно
1014.3 1013.3
03 10.07 СЗ 2 8000 м 5/0
[Ac trans]
+25.4 +23.1 87 +34 +34 очень
душно
1013.0 1012.0
06 10.07 В 2 8000 м 5/0
[Ac trans]
+24.4 +22.9 91 +32 +32 очень
душно
1013.2 1012.2 +24.4
09 10.07 З 2 10 км 8/5 400 м
[Sc Ac trans]
+25.6 +22.8 85 +34 +36 очень
душно
1014.2 1013.2
12 10.07 СЗ 3 10 км 4/0
[Ci sp]
+31.6 +23.6 63 +43 +58 опасность
перегрева
1013.8 1012.8
15 10.07 СЗ 4 10 км 6/0
[Ci sp]
+35.4 +20.7 42 +42 +52 опасность
перегрева
1011.7 1010.7
18 10.07 З 4 10 км 8/4 450 м
[Sc Ci sp]
+34.2 +22.4 50 +43 +44 опасность
перегрева
1011.0 1010.0 +36.2
21 10.07 З 3 8000 м 6/0
[Ac cast]
+29.5 +22.2 65 +38 +38 очень
душно
1012.7 1011.7
00 11.07 СЗ 2 8000 м 5/0
[Ac cast]
+26.3 +22.5 80 +35 +35 очень
душно
1014.0 1013.3
03 11.07 СЗ 1 8000 м [водн. экв. осадков 130 мм] 4/0
[Ac cast]
+25.0 +22.0 83 +32 +32 очень
душно
1013.8 1012.8
06 11.07 З 1 8000 м 6/0
[Ac cast]
+24.4 +21.7 85 +31 +31 очень
душно
1013.0 1012.0 +24.4
09 11.07 З 2 10 км 5/0
[Ac trans Ci sp]
+26.2 +22.2 79 +34 +39 очень
душно
1014.1 1013.1
12 11.07 СЗ 4 10 км 9/3 450 м
[Cu Sc Ci sp]
+32.0 +23.4 60 +43 +50 опасность
перегрева
1014.0 1013.0
15 11.07 З 4 10 км 4/4 450 м
[Sc]
+34.8 +22.1 48 +44 +50 опасность
перегрева
1012.0 1011.0
18 11.07 З 4 10 км 9/0
[Ac As]
+33.1 +21.2 50 +41 +41 опасность
перегрева
1011.3 1010.3 +35.5
21 11.07 З 2 8000 м 9/0
[Ci sp]
+28.8 +21.2 64 +36 +36 очень
душно
1013.7 1012.7
00 12.07 СЗ 2 8000 м 9/0
[Ci sp]
+26.1 +21.5 76 +33 +33 очень
душно
1014.4 1013.4
03 12.07 штиль 0 8000 м 6/0
[Ci sp]
+24.4 +21.6 84 +31 +31 очень
душно
1012.5 1011.5
06 12.07 штиль 0 8000 м ясно +24.0 +21.6 86 +31 +31 очень
душно
1013.4 1012.4 +24.0
09 12.07 штиль 0 10 км ясно +26.0 +22.3 80 +34 +42 очень
душно
1014.3 1013.3
12 12.07 З 1 10 км 3/0
[Ci sp]
+32.0 +21.4 54 +40 +62 опасность
солнечного
удара
1014.0 1013.0
15 12.07 З 3 12 км ясно +27.6 +20.7 66 +34 +48 очень
душно
1011.8 1010.8
18 12.07 ЮЗ 3 12 км ясно +37.4 +21.7 40 +45 +47 опасность
перегрева
1010.1 1009.1 +38.8
21 12.07 СЗ 3 8000 м 5/0
[Ac cast]
+30.2 +22.7 64 +40 +40 очень
душно
1012.2 1011.2
00 13.07 СЗ 2 8000 м 3/0
[Ci sp]
+27.0 +22.9 78 +36 +36 очень
душно
1014.4 1013.4
03 13.07 СЗ 2 8000 м 6/0
[Ac As]
+26.0 +23.1 84 +35 +35 очень
душно
1013.2 1012.2
06 13.07 штиль 0 8000 м 8/0
[Ac As]
+25.5 +23.3 88 +34 +34 очень
душно
1013.3 1012.3 +25.5
09 13.07 Ю 2 10 км 8/0
[Ac As]
+27.5 +23.9 81 +38 +41 очень
душно
1014.5 1013.5
12 13.07 ЮЗ 3 10 км 6/0
[Ci sp]
+32.4 +22.4 56 +42 +57 опасность
перегрева
1013.1 1012.1
15 13.07 З 1 10 км 5/0
[Ci sp]
+37.9 +23.2 43 +48 +66 опасность
перегрева
1011.0 1010.0
18 13.07 С 3 10 км 8/6 450 м
[Cu med, cong Ci sp]
+37.9 +24.0 45 +49 +50 опасность
перегрева
1010.4 1009.4 +39.5
21 13.07 СЗ 1 8000 м 8/0
[Ac trans]
+32.1 +21.7 54 +40 +40 очень
душно
1012.8 1011.8
00 14.07 С 1 8000 м 8/0
[Ac trans]
+29.7 +21.4 61 +38 +38 очень
душно
1014.4 1013.7
03 14.07 З 2 8000 м 9/0
[Ac As]
+27.7 +23.8 79 +38 +38 очень
душно
1012.5 1011.5
06 14.07 З 2 8000 м 4/0
[Ac trans]
+27.0 +24.1 84 +37 +37 очень
душно
1013.0 1012.0 +27.0
09 14.07 З 1 10 км 9/0
[Ci sp]
+27.8 +24.5 82 +39 +45 очень
душно
1014.2 1013.2
12 14.07 ЮЗ 2 10 км 6/0
[Ci sp]
+34.0 +24.1 56 +46 +63 опасность
перегрева
1013.9 1012.9
15 14.07 З 1 10 км 8/8 450 м
[Cu med, cong]
+37.8 +23.7 45 +49 +53 опасность
перегрева
1011.7 1010.7
18 14.07 З 4 10 км 3/3 450 м
[Sc]
+34.8 +22.9 50 +45 +46 опасность
перегрева
1011.1 1010.1 +38.7
21 14.07 З 2 8000 м ясно +30.2 +22.8 65 +40 +40 очень
душно
1013.3 1012.3
00 15.07 штиль 0 8000 м ясно +28.0 +23.4 76 +38 +38 очень
душно
1014.2 1013.2
03 15.07 штиль 0 8000 м ясно +26.7 +22.0 75 +34 +34 очень
душно
1012.6 1011.6
06 15.07 З 2 8000 м ясно +25.2 +22.7 86 +33 +33 очень
душно
1012.1 1011.1 +25.2
09 15.07 З 1 10 км 5/5 400 м
[Sc]
+27.0 +22.6 77 +36 +39 очень
душно
1013.3 1012.3
12 15.07 З 2 10 км ясно +32.1 +21.4 53 +40 +60 опасность
солнечного
удара
1012.4 1011.4
15 15.07 З 3 10 км ясно +36.8 +20.3 38 +43 +57 опасность
перегрева
1009.9 1008.9
18 15.07 З 5 10 км 4/0
[Ci sp]
+33.9 +19.9 44 +40 +41 очень
душно
1009.8 1008.8 +37.4
21 15.07 З 2 8000 м 4/0
[Ci ing]
+28.4 +21.8 67 +36 +36 очень
душно
1012.0 1011.0

 

Местоположение метеостанции Диурбель (Сенегал): широта 14.65 долгота -16.23 высота над уровнем моря 9 м.

В архиве по умолчанию представлена погода в Диурбеле за последнюю неделю. Архивные данные за месяц целиком и за предыдущие месяцы, начиная с января 2011 года, Вы можете получить, выбрав интересующий диапазон дат из раскрывающегося списка и нажав кнопку "Ввод!".


*Определитесь, кто Вы:
робот инопланетянин человек

Внимание! Время в таблицах - всемирное. Для получения местного времени необходимо прибавить поправку, которая равна 0 ч.

Смотрите также архив погоды в соседних городах и на ближайших метеорологических станциях:

Погода в Каолаке (Сенегал) (61 км)
Погода в Сапу (Гамбия) (124 км)
Погода в Кереване (Гамбия) (130 км)
Погода в Банжуле Half-Die (Гамбия) (136 км)
Погода в Дакаре (Сенегал) (137 км)
Погода в Кауере (Гамбия) (143 км)
Погода в Лингере (Сенегал) (145 км)
Погода в Женое (Гамбия) (148 км)
Погода в Банжуле (Гамбия) (153 км)
Погода в Сент-Луисе (Сенегал) (157 км)

Пояснения к столбцам:

Ветер - указаны скорость ветра в м/с - средняя за 10 мин, порывы в срок и между сроками (в фигурных скобках) и направление, откуда дует ветер: С - северный, СВ - северо-восточный, В - восточный, ЮВ - юго-восточный, Ю - южный, ЮЗ - юго-западный, З - западный, СЗ - северо-западный.
Видимость - горизонтальная дальность видимости в метрах или километрах. При видимости от 1 до 10 км при отсутствии осадков обычно наблюдается дымка, при ухудшении видимости до 1 км и менее - туман. В сухую погоду видимость может ухудшаться дымом, пылью или мглою.
Явления - указаны атмосферные явления, наблюдавшиеся в срок или в последний час перед сроком; фигурными скобками обозначены явления, наблюдавшиеся между сроками (за 1-3 часа до срока); квадратными скобками обозначены град или гололедные отложения с указанием их диаметра в мм.
Облачность - указаны через наклонную черту общая и нижняя облачность в баллах и высота нижней границы облаков в метрах; квадратными скобками обозначены формы облаков: Ci - перистые, Cs - перисто-слоистые, Cc - перисто-кучевые, Ac - высококучевые, As - высокослоистые, Sc - слоисто-кучевые, Ns - слоисто-дождевые, Cu - кучевые, Cb - кучево-дождевые. Подробнее классификацию облаков см. в Атласе облаков (PDF).
T - Температура воздуха - температура, измеренная на высоте 2 м над землей.
Td - Температура точки росы - температура, при понижении до которой содержащийся в воздухе водяной пар достигнет насыщения.
f - Относительная влажность воздуха - влажноcть воздуха, измеренная на высоте 2 м над землей.
Te - Эффективная температура - температура, которую ощущает одетый по сезону человек в тени. Характеристика душности погоды. При расчете учитывается влияние влажности воздуха и скорости ветра на теплоощущения человека.
Tes - Эффективная температура на солнце - температура, которую ощущает человек, с поправкой на солнечный нагрев. Характеристика знойности погоды. Зависит от высоты солнца над горизонтом, облачности и скорости ветра. Ночью, в пасмурную погоду, а также при ветре 12 м/с и более поправка равна нулю.
P - Атмосферное давление - приведенное к уровню моря атмосферное давление.
Po - Атмосферное давление - измеренное на уровне метеостанции атмосферное давление.
Tmin - Минимальная температура - минимум температуры воздуха на высоте 2 м над землей.
Tmax - Максимальная температура - максимум температуры воздуха на высоте 2 м над землей.
R - Количество осадков - Количество выпавших осадков за период времени, мм. При наведении курсора мыши на число - период времени, за который выпало указанное количество осадков.
R24 - Количество осадков - Количество выпавших осадков за 24 часа, мм.
S - Снежный покров - Высота снежного покрова, см. При наведении курсора мыши на число - состояние снежного покрова и степень покрытия местности в баллах.